Lid_Strength_Index
3 3 3 3 3 3 3 2 2 1 1 0 0 1 2 2 2 6 8 6 5 2 4 9 10 9 9 10 8 7 11 13 12 11 10 8 8 7 6 6 5 5 5 4 2
3 3 3 3 3 3 3 3 2 2 1 1 0 0 1 1 5 7 4 2 1 2 8 10 11 10 11 11 10 11 12 11 9 9 9 8 8 8 7 7 7 6 4 3 3
3 3 3 3 3 3 3 3 3 3 2 1 1 1 1 2 8 8 2 2 1 2 7 9 10 10 12 11 11 11 13 11 9 7 7 8 8 7 8 9 6 7 6 4 4
2 3 3 3 3 3 3 3 3 3 2 2 1 1 0 3 13 6 2 3 2 4 7 12 11 13 13 13 11 12 11 11 10 7 7 9 8 8 7 7 5 4 4 4 4
2 2 2 3 3 3 3 3 3 4 3 2 2 1 3 6 7 4 1 4 6 4 9 12 12 12 14 13 12 12 12 11 10 9 8 7 8 8 8 7 5 4 4 5 4
-0 0 0 1 1 2 3 3 3 3 3 2 2 2 5 10 3 4 3 5 7 6 7 11 13 11 13 13 13 12 11 11 10 10 9 9 9 9 7 7 5 5 5 5 4
-2 -2 -2 -2 -1 -1 1 2 3 3 3 3 2 4 7 8 3 4 3 6 6 7 9 9 10 11 12 13 12 12 13 12 12 11 11 9 11 10 8 7 6 6 5 5 4
-2 -2 -2 -2 -2 -2 -2 -1 1 2 2 2 2 5 10 4 3 2 3 5 5 5 6 6 9 9 11 10 11 13 14 16 14 11 11 11 15 11 8 7 7 6 6 5 5
-2 -2 -2 -2 -2 -2 -2 -2 -2 -0 1 2 5 6 12 3 5 4 3 5 4 5 5 4 7 10 11 13 14 15 19 18 16 12 12 12 14 11 10 8 8 7 6 6 5
-2 -2 -2 -2 -2 -2 -2 -2 -2 -1 2 2 4 9 9 9 5 3 2 4 5 6 7 8 10 13 14 15 20 18 19 17 17 14 13 13 13 12 11 9 8 8 7 6 6
-2 -2 -2 -2 -2 -2 -0 2 6 6 4 8 7 9 7 6 4 4 3 3 5 7 11 10 14 17 16 15 15 16 17 18 16 14 14 14 14 12 11 12 11 11 10 9 7
-2 -2 -2 -2 -2 -2 1 4 4 3 8 4 5 6 6 5 8 6 2 7 8 11 10 12 16 14 12 11 13 16 16 17 16 14 14 17 16 14 13 11 10 10 11 11 11
-1 -1 -1 -1 -1 2 3 3 -0 0 8 7 5 5 6 4 8 7 4 6 9 11 11 14 13 12 12 12 13 14 17 18 17 16 16 18 18 16 14 13 11 10 9 10 10
-1 -1 -1 -1 3 3 4 0 0 1 12 11 8 6 5 4 9 4 4 6 9 11 10 12 10 13 13 13 12 15 14 15 15 16 20 18 22 20 17 16 14 12 11 9 8
-1 -1 -1 -0 5 4 2 -0 1 4 23 11 8 3 5 7 8 7 4 6 10 11 10 13 12 12 14 14 12 14 12 13 14 15 17 19 21 20 19 18 16 15 13 11 9
-1 -1 -1 2 4 1 -0 -0 2 14 22 16 8 9 10 8 8 7 7 6 7 10 10 11 9 10 11 12 10 10 12 14 15 16 20 20 20 21 19 17 16 15 14 13 11
-1 -1 1 2 6 1 1 3 13 18 13 15 12 9 10 11 10 10 10 11 13 15 15 12 12 10 10 13 12 12 14 18 20 22 24 21 20 19 18 16 16 15 14 13 13
-1 -1 1 2 2 2 3 10 20 19 21 11 10 10 12 11 11 12 11 13 10 12 15 16 17 12 10 12 14 15 14 17 22 23 22 19 22 20 16 15 14 14 14 13 13
-1 2 5 4 2 3 10 16 19 18 12 11 10 13 14 12 11 12 12 12 11 10 15 16 16 11 10 10 11 14 15 13 15 18 21 20 20 17 16 15 14 14 13 13 13
3 5 6 1 3 7 16 16 17 10 10 9 14 12 16 14 14 15 14 12 12 10 9 13 16 12 10 10 10 12 12 17 16 23 22 21 21 20 17 16 16 15 14 14 13
4 10 4 2 5 13 20 20 18 9 9 10 11 14 14 14 13 14 13 11 11 12 9 11 13 14 11 13 13 12 14 14 15 17 21 23 21 17 16 16 15 14 13 14 11
10 15 3 3 13 15 20 17 8 9 10 11 10 10 12 12 14 13 14 12 10 11 13 11 13 16 15 12 10 11 12 12 16 19 18 19 19 15 15 14 14 13 12 11 11
9 7 3 5 19 22 18 13 10 10 9 12 12 10 9 12 15 12 11 9 9 10 12 12 14 17 16 13 11 14 12 11 12 15 18 21 19 14 14 15 14 13 12 11 10
12 14 10 7 13 17 20 18 15 8 10 9 11 10 10 11 11 13 11 9 9 8 7 10 15 17 20 17 14 16 13 12 13 17 16 17 16 15 14 14 13 13 12 12 11
13 17 16 13 12 13 12 11 12 13 11 9 10 10 13 16 12 12 11 10 9 8 9 11 19 16 15 15 14 14 14 14 14 14 16 14 16 14 12 13 12 12 12 12 11
13 14 11 12 12 17 14 14 12 11 11 13 12 9 11 15 12 12 11 12 11 9 10 9 15 13 15 13 14 15 13 13 14 15 15 15 15 11 10 10 11 10 11 11 10
9 9 12 11 12 18 21 16 12 10 9 8 9 10 10 9 9 9 9 9 10 11 11 12 14 16 21 15 15 22 16 13 14 14 14 16 14 11 11 11 10 10 10 10 10